Temperature
21 21 21 21 18 16 18 18 19 19 19 19 19 18 17 17 17 17 17 17 17 17 17 17 17 17 17 17 17 17 17 17 17 17 17 17 18 18 18 18 18 18 18 18 18 18 18 18 18
21 21 21 21 16 17 18 18 19 19 19 19 19 18 17 17 17 17 17 17 17 17 17 17 17 17 17 17 17 17 17 17 17 17 17 17 17 17 17 18 18 18 18 17 17 17 17 17 17
21 21 21 16 17 17 19 19 19 19 19 19 18 17 17 17 17 17 17 17 17 17 17 17 17 17 17 17 17 17 17 17 17 17 17 17 17 17 17 17 17 17 17 17 17 17 17 17 17
21 21 20 17 18 18 18 19 19 19 19 19 18 17 17 17 17 17 17 17 17 17 17 17 17 17 17 17 17 17 17 17 17 17 17 17 17 17 17 17 17 17 17 17 17 17 17 17 17
22 21 17 17 18 19 18 19 19 19 19 18 18 17 17 17 17 17 17 17 17 17 17 17 17 17 17 17 17 17 17 17 17 17 17 17 17 17 17 17 17 17 17 17 17 17 17 17 17
22 18 16 17 18 19 19 19 19 19 18 18 18 17 17 17 17 17 17 17 17 17 17 17 17 17 17 17 17 17 17 17 17 17 17 17 17 17 17 17 17 17 16 16 16 16 16 16 17
20 16 17 18 18 19 20 20 19 18 18 18 18 16 16 17 17 17 17 17 17 17 17 17 17 16 16 16 16 16 16 16 16 16 16 16 16 17 16 16 16 16 16 16 16 16 16 16 16
21 16 18 17 18 19 20 20 20 19 19 19 19 17 17 17 17 17 17 17 16 16 16 16 16 16 16 16 16 16 16 16 16 16 16 16 16 16 16 16 16 16 16 16 16 16 16 16 16
21 16 17 18 18 19 20 20 20 20 19 19 18 19 18 18 17 17 17 16 16 16 16 16 16 16 16 16 16 16 16 16 16 16 16 16 16 16 16 16 16 16 16 16 16 16 16 16 16
20 17 19 19 19 19 20 20 20 19 18 18 18 18 18 17 17 17 17 17 17 17 16 16 16 16 16 16 16 16 16 16 16 16 16 16 16 16 16 16 16 16 16 16 16 16 16 16 16
19 18 19 20 20 20 20 20 20 19 18 18 19 18 18 17 17 17 17 17 17 17 16 16 16 16 16 16 16 16 16 16 16 16 16 16 16 16 16 16 16 16 16 16 16 16 16 15 15
19 19 20 20 21 20 20 20 19 19 19 20 20 19 18 18 17 17 17 17 17 17 17 16 16 16 16 16 16 16 16 16 16 16 16 16 15 15 15 15 15 15 16 16 16 15 15 15 15
19 20 20 20 21 20 20 19 19 19 20 20 20 19 18 18 18 18 17 17 17 17 17 17 16 16 16 16 16 16 16 16 16 15 15 15 15 15 15 15 15 15 15 15 15 15 15 15 15
20 20 20 20 20 20 19 19 19 19 19 19 19 18 18 18 18 18 17 17 17 17 17 17 16 16 16 16 16 16 16 15 15 15 15 15 15 15 15 15 15 15 15 15 15 15 15 15 15
20 19 19 19 20 19 19 18 18 19 19 18 18 18 18 18 18 18 18 18 17 17 17 17 16 16 16 16 16 16 16 15 15 15 15 15 15 15 15 15 15 15 15 15 15 15 14 14 14
19 18 18 19 19 19 19 18 18 19 18 18 18 18 18 18 18 18 18 18 17 17 17 17 17 16 16 16 16 16 15 15 15 15 15 15 15 15 15 15 15 15 15 14 14 14 14 14 14
17 17 18 18 18 18 18 18 18 18 18 17 17 18 18 18 18 18 18 18 17 17 17 17 17 16 16 16 16 15 15 15 15 15 15 15 15 15 14 14 14 14 14 14 14 14 14 14 14
17 17 18 18 18 18 17 17 17 18 17 17 17 17 17 18 18 18 18 18 17 17 17 17 17 16 16 16 16 16 15 15 15 15 15 15 15 15 14 14 14 14 14 14 14 14 14 13 14
18 18 17 17 18 17 17 17 17 17 17 16 17 17 17 18 18 18 18 18 17 17 17 17 17 16 16 16 16 16 15 15 15 15 15 15 15 14 14 14 14 14 14 14 14 14 13 13 13
18 18 17 17 18 18 17 16 16 16 16 17 17 17 17 18 18 18 18 17 17 17 17 17 17 16 16 16 16 16 15 15 15 15 15 15 14 14 14 14 14 14 14 13 13 13 13 13 13
18 17 17 17 17 17 17 16 16 16 16 17 17 17 17 18 18 18 18 17 17 17 17 17 16 16 16 16 16 15 15 15 15 15 15 15 14 14 14 14 14 14 13 13 13 13 13 13 13
18 18 18 18 17 15 17 15 16 15 15 15 16 16 17 17 18 18 18 17 17 17 17 17 16 16 16 16 15 15 15 15 15 15 15 15 14 14 14 14 14 13 13 13 13 13 13 13 12
18 18 17 17 16 15 15 15 15 15 15 15 15 16 17 17 17 18 18 18 17 17 17 17 16 16 16 15 15 15 15 15 15 15 15 14 14 14 14 14 14 13 13 13 13 13 12 12 12
18 17 16 14 14 15 15 15 15 14 15 15 15 16 17 17 17 17 18 17 17 17 17 16 16 16 16 15 15 15 15 15 15 15 14 14 14 14 14 14 13 13 13 13 13 12 12 12 12
17 15 15 15 14 14 15 15 14 15 15 15 15 16 17 17 17 17 17 17 17 17 17 16 16 16 16 15 15 15 15 15 15 14 14 14 14 14 14 13 13 13 13 13 12 12 12 12 12
16 16 15 15 14 14 14 14 15 15 15 15 15 16 17 17 17 17 17 17 17 17 17 16 16 16 16 15 15 15 15 15 14 14 14 14 14 14 14 13 13 13 13 13 12 12 12 12 11
16 15 15 14 14 14 14 14 14 15 15 15 15 15 16 16 16 16 17 17 17 16 16 16 16 16 16 15 15 15 15 15 14 14 14 14 14 14 13 13 13 13 13 12 12 12 12 11 11
16 14 13 14 14 14 14 14 14 15 14 14 13 14 15 16 16 16 16 16 16 16 16 16 16 16 15 15 15 15 15 14 14 14 14 14 14 13 13 13 13 13 12 12 12 12 12 11 11
15 14 13 12 13 13 14 14 15 14 13 13 13 14 14 15 16 16 16 16 16 16 16 16 16 15 15 15 15 15 14 14 14 14 14 13 13 13 13 13 13 12 12 12 12 12 11 11 11
16 15 13 14 13 12 12 13 14 13 13 13 13 14 14 15 15 15 15 15 15 15 15 15 15 15 15 15 15 15 14 14 14 14 14 13 13 13 13 12 12 12 12 12 12 12 11 11 11
Wind_Speed
2 3 3 4 6 6 3 2 1 1 2 2 4 6 7 4 2 2 1 2 2 1 2 3 5 7 8 9 10 10 11 11 11 12 12 12 12 12 12 12 13 13 13 13 12 12 12 12 12
1 2 4 5 5 4 2 2 1 1 4 4 5 5 5 3 2 3 1 2 3 3 3 4 6 8 9 9 10 10 10 10 11 11 11 12 12 12 12 12 12 12 12 12 12 12 12 11 11
2 4 5 5 4 4 2 1 1 2 4 3 4 4 4 2 2 3 2 4 4 3 3 4 6 8 9 9 9 9 9 10 10 10 10 11 11 11 12 12 11 12 12 12 11 11 11 11 10
4 5 5 6 4 2 3 3 3 3 3 4 4 4 3 2 3 3 5 5 5 3 4 5 6 7 8 9 9 9 9 9 10 10 10 11 11 11 11 11 11 11 11 11 11 11 11 10 10
4 5 6 4 2 1 1 2 2 3 3 3 4 4 2 4 4 6 6 5 5 3 3 4 6 7 8 8 8 9 9 9 10 9 10 10 10 10 11 11 11 11 11 11 10 10 10 10 10
5 5 5 2 1 2 1 1 3 4 3 3 5 4 1 1 5 5 5 5 4 3 4 4 5 6 7 7 8 9 9 9 9 9 9 10 10 10 10 10 10 10 10 10 10 10 10 11 10
5 5 4 3 1 1 1 2 4 4 3 3 5 5 1 2 4 5 5 4 4 4 4 4 4 5 6 7 7 8 8 8 8 8 8 9 9 9 9 10 10 10 10 10 11 11 11 11 12
5 5 4 1 2 1 2 2 2 4 3 3 5 7 5 5 5 6 5 5 4 3 3 3 4 4 5 6 6 7 7 7 8 8 8 9 9 9 9 9 9 10 10 11 11 11 11 12 12
4 5 2 4 4 2 1 2 2 2 5 3 2 3 4 9 9 7 5 3 2 2 1 2 3 3 4 4 5 6 6 7 7 8 8 9 8 9 9 9 10 10 11 11 11 12 12 12 12
5 4 4 4 5 3 2 3 4 4 3 2 3 4 7 10 9 8 6 5 4 3 2 1 1 2 3 3 5 5 5 6 6 6 7 7 8 8 8 9 10 10 11 11 12 12 12 11 10
4 4 3 1 3 3 3 2 3 7 2 5 6 8 10 9 8 7 6 5 5 4 3 2 2 1 2 2 3 4 4 5 5 6 6 6 7 7 8 7 8 9 9 9 10 10 9 9 8
3 1 2 1 2 3 4 3 3 4 4 5 8 11 11 10 9 8 7 6 4 4 3 3 2 2 2 2 2 3 3 3 3 4 5 5 4 4 5 5 6 7 6 7 7 7 8 8 8
2 1 1 1 2 3 4 3 3 2 1 4 8 10 10 9 8 6 5 4 4 4 4 3 3 3 2 2 1 2 2 3 3 4 4 5 3 3 3 4 5 5 6 5 5 5 6 6 7
1 2 1 2 2 1 3 1 2 2 3 7 8 9 8 8 7 5 4 4 5 5 5 4 4 3 3 2 2 2 2 2 3 3 3 4 4 3 3 3 4 4 5 5 5 5 4 4 5
2 3 4 2 1 0 3 2 2 2 6 7 7 6 6 5 6 6 7 6 6 6 5 5 5 4 4 3 2 2 2 3 2 2 2 3 4 4 3 3 3 3 5 5 5 5 5 4 4
4 3 2 3 0 1 4 4 4 3 7 7 6 6 5 5 6 6 6 5 6 5 5 5 5 5 4 3 3 2 2 3 2 2 2 3 4 4 4 3 2 3 5 4 3 3 4 4 4
4 1 2 4 1 2 3 4 4 4 7 7 7 6 6 5 5 5 5 6 5 6 5 5 4 5 4 3 2 3 3 2 2 2 2 3 4 4 4 3 2 4 4 3 3 3 3 3 3
3 2 2 3 2 3 2 5 5 4 6 7 7 7 7 7 8 6 6 5 5 4 5 5 4 4 4 3 2 2 2 1 1 1 2 3 4 4 5 3 3 4 3 3 3 3 3 2 2
4 3 3 4 2 2 4 6 7 4 5 6 6 6 7 8 6 4 4 4 4 4 4 5 5 4 4 2 2 2 1 0 0 0 2 3 4 5 5 3 3 3 3 2 3 3 3 3 2
3 2 2 3 1 2 2 5 6 4 5 7 8 9 9 7 4 4 4 5 5 6 5 5 5 5 5 3 3 2 2 1 0 0 1 2 3 4 4 4 2 2 3 3 3 2 2 2 2
3 4 4 3 2 2 2 5 4 3 1 2 4 6 7 9 8 7 6 6 6 7 7 7 6 5 5 3 3 3 3 2 1 0 0 0 2 3 4 4 3 2 3 2 2 2 3 1 1
3 4 4 3 1 2 1 3 6 4 3 3 3 3 5 6 6 7 7 6 7 8 6 6 6 5 4 5 4 5 3 3 3 2 1 1 1 2 3 4 4 3 2 2 2 2 2 3 1
4 1 2 2 2 1 2 1 6 4 4 5 4 4 4 5 5 6 7 8 7 6 6 5 5 5 5 5 5 5 3 2 1 1 1 1 0 1 2 3 4 3 2 2 2 2 2 2 2
3 5 5 5 4 1 2 2 5 3 4 5 4 3 3 3 3 4 5 5 4 4 4 4 5 5 5 5 5 5 5 3 2 2 2 1 1 1 1 3 3 3 2 2 2 2 3 2 2
5 5 3 4 3 4 2 2 5 5 3 3 4 4 3 2 2 2 3 4 5 6 6 5 6 5 5 5 5 5 6 5 5 4 4 3 2 2 3 3 3 3 3 3 3 3 2 2 2
3 6 6 3 3 4 2 3 5 3 3 2 2 3 2 1 2 2 3 4 5 6 6 6 7 6 6 6 6 6 5 5 4 5 4 5 4 4 3 4 4 3 3 3 3 2 2 2 2
4 3 5 5 1 1 4 5 6 3 4 4 4 4 3 2 2 2 2 3 4 5 6 7 7 6 6 6 6 6 5 5 5 4 4 4 4 4 4 4 4 3 3 3 3 2 2 2 2
4 6 5 4 2 3 4 4 4 4 5 6 5 5 5 3 2 1 1 2 3 4 4 4 5 5 5 5 5 5 5 5 5 4 5 5 4 3 4 4 4 4 3 3 3 2 2 3 2
3 4 4 3 3 4 3 5 2 2 3 3 4 5 5 4 2 1 1 1 2 1 2 2 3 3 3 4 4 4 4 4 4 4 5 5 4 4 4 5 5 4 4 4 4 3 3 3 3
3 5 6 4 3 3 3 5 2 1 2 2 4 5 5 4 2 1 1 1 1 1 1 1 2 2 3 4 4 4 4 4 4 5 4 4 4 4 5 5 5 5 4 4 5 5 4 4 4
Wind_Direction
24 72 77 56 54 53 48 344 324 32 52 45 62 84 97 91 100 136 260 160 148 117 87 90 89 88 86 86 86 83 81 80 79 79 76 75 74 73 73 76 76 75 73 71 69 71 72 73 75
59 78 55 57 77 71 348 323 25 135 144 132 75 75 77 71 75 109 135 168 128 109 92 95 94 92 89 88 89 87 83 81 79 76 74 73 72 71 71 73 74 74 74 72 70 69 69 69 71
78 56 73 67 87 142 173 252 154 77 105 103 79 62 86 100 123 159 192 150 112 94 87 95 96 92 89 90 90 89 84 81 78 75 74 72 71 69 68 70 72 71 70 70 69 67 66 66 67
79 48 55 69 82 207 186 194 154 116 79 60 95 72 60 39 152 157 142 128 114 93 84 93 95 93 91 93 93 88 85 81 79 76 75 73 71 68 66 67 69 69 68 68 67 66 64 61 62
61 72 61 53 17 321 250 203 156 114 93 68 96 97 49 3 99 119 127 126 123 104 81 88 95 93 91 91 90 88 83 81 81 77 75 75 73 70 68 66 66 66 65 64 65 65 62 61 58
56 65 80 85 349 346 347 165 132 103 107 110 110 111 84 64 118 131 125 120 116 105 81 79 96 96 91 92 91 89 84 82 80 76 75 73 72 70 67 66 65 62 61 62 62 62 60 56 54
98 89 115 140 129 346 187 127 134 128 128 156 137 116 132 163 155 131 113 106 95 83 74 60 66 81 86 88 91 88 86 82 78 74 74 72 68 66 65 65 65 64 61 60 59 60 59 57 56
115 99 93 125 152 222 175 130 138 133 137 126 126 141 179 187 145 111 95 89 84 73 67 60 58 66 68 74 86 88 86 83 77 73 72 71 64 58 57 57 59 61 62 60 57 58 58 58 59
88 81 136 188 177 210 164 123 92 90 104 97 118 162 170 138 126 115 101 86 99 109 66 63 58 64 68 67 73 74 76 76 70 66 67 66 58 53 52 56 58 59 60 59 55 57 56 55 55
85 120 198 202 180 176 157 140 143 103 96 93 75 82 115 129 139 144 150 158 168 177 186 132 100 75 70 69 65 59 63 65 65 64 66 67 62 57 57 56 56 57 57 57 55 55 53 50 48
114 157 195 207 183 153 134 124 124 128 172 199 174 153 140 142 152 162 168 174 184 183 180 172 159 106 82 67 72 64 64 65 64 65 70 72 64 58 55 54 50 50 52 52 51 51 50 51 49
117 157 154 162 128 128 140 135 127 161 219 206 168 153 150 158 171 179 181 184 176 169 186 179 161 132 101 94 84 84 76 73 69 69 78 79 68 58 56 58 54 53 54 54 53 55 51 51 50
118 149 113 126 94 111 109 127 158 242 311 115 129 140 157 170 181 188 185 180 172 178 188 175 155 150 131 99 90 96 83 82 85 79 82 91 90 70 65 62 61 58 58 61 58 58 52 45 42
162 119 45 37 90 77 116 104 124 253 114 119 139 159 172 180 182 178 177 183 186 188 188 172 160 156 135 123 118 102 96 92 86 84 88 97 100 94 79 65 63 61 62 65 66 60 56 45 45
87 67 19 9 88 135 111 18 236 203 130 141 162 172 178 190 184 187 190 188 188 189 184 174 170 156 146 145 143 117 110 105 89 93 99 102 105 105 99 84 69 63 69 72 70 60 57 52 48
65 56 347 309 49 140 133 248 261 157 150 170 184 186 188 198 199 199 193 187 182 175 175 180 171 158 157 152 136 117 114 107 99 106 108 110 115 114 105 91 75 72 74 74 69 59 60 50 47
44 72 270 303 296 131 156 239 266 167 169 190 198 200 199 203 214 209 197 189 179 176 174 168 158 158 158 144 123 109 100 94 97 100 107 114 120 118 113 100 89 82 77 66 70 60 64 64 52
216 215 250 260 275 130 183 248 269 196 188 204 206 207 207 208 219 209 197 185 174 171 166 164 155 150 141 123 96 78 69 60 70 94 133 131 128 126 119 108 96 94 82 65 68 75 56 62 57
172 185 240 255 242 173 225 255 265 231 207 218 217 214 218 223 226 203 188 176 164 162 162 168 164 162 148 146 144 130 141 100 47 83 141 139 137 134 126 111 99 96 96 97 97 92 72 49 37
173 193 258 290 277 183 250 282 278 229 211 216 216 215 218 224 219 203 186 176 178 179 182 179 180 176 174 177 168 152 143 161 201 0 91 144 146 145 143 131 126 119 108 95 92 93 89 49 39
209 199 221 234 359 31 345 319 315 301 260 245 232 222 216 211 211 207 196 192 188 191 194 192 189 183 179 158 122 99 78 56 38 355 310 223 164 157 150 146 134 134 134 137 135 121 120 118 36
241 235 198 178 97 302 34 301 303 299 315 300 271 237 227 223 216 208 199 197 201 204 198 193 188 181 175 160 156 156 164 190 213 208 216 230 170 165 156 148 142 143 142 146 166 144 129 127 116
210 108 126 131 151 28 15 181 297 327 322 301 283 258 246 229 216 213 208 208 207 197 190 192 187 181 177 175 175 174 179 197 192 159 171 206 230 171 156 152 146 149 156 164 162 140 132 131 141
125 77 59 49 71 346 266 179 293 284 260 292 305 297 270 239 215 216 212 198 190 180 179 179 182 187 182 184 184 185 185 180 166 190 199 212 228 233 177 155 158 159 162 170 170 159 148 147 141
79 82 31 3 7 264 273 176 254 264 260 265 290 301 286 245 214 215 199 186 187 185 187 188 189 199 193 192 199 199 197 189 194 201 203 201 205 219 220 187 178 175 175 165 151 154 168 169 164
140 135 152 198 232 280 324 233 253 267 300 301 302 317 321 267 224 217 210 196 193 195 193 193 199 208 202 200 210 209 203 201 210 207 202 206 211 214 208 193 187 182 171 166 154 159 179 172 179
131 149 155 136 168 273 280 290 305 326 354 6 5 4 343 295 250 234 222 201 190 193 199 199 203 210 209 209 212 212 207 207 213 211 204 208 212 208 193 191 189 187 176 168 162 176 192 174 184
119 139 100 118 163 260 289 277 266 311 328 344 349 339 327 318 297 269 233 219 205 203 201 190 197 208 213 213 214 217 213 213 215 209 212 211 208 199 187 190 190 187 183 178 173 185 194 178 197
88 96 105 119 156 170 251 272 245 246 292 315 319 322 324 318 303 294 294 256 195 159 156 180 195 206 217 215 214 210 210 206 208 215 221 216 205 195 194 193 191 193 193 187 181 190 188 195 210
144 149 143 152 220 185 197 262 312 322 316 330 329 331 340 342 344 357 358 23 67 103 156 191 200 221 230 218 211 215 215 209 212 220 224 220 212 204 201 194 193 198 197 192 191 197 196 200 210
Height
1494 1494 1494 1495 1499 1513 1518 1514 1510 1509 1509 1509 1509 1510 1512 1515 1518 1523 1520 1518 1518 1518 1518 1518 1518 1518 1518 1518 1518 1518 1518 1518 1518 1518 1518 1518 1518 1518 1518 1518 1518 1518 1518 1518 1519 1519 1519 1520 1520
1495 1495 1496 1496 1510 1525 1521 1513 1511 1509 1510 1510 1511 1512 1513 1515 1516 1518 1518 1518 1519 1519 1519 1519 1519 1519 1519 1519 1520 1520 1520 1520 1520 1520 1520 1520 1520 1520 1520 1520 1520 1520 1520 1520 1521 1521 1521 1521 1522
1495 1496 1498 1502 1515 1523 1518 1511 1510 1509 1510 1511 1512 1514 1515 1517 1517 1518 1519 1519 1520 1520 1520 1520 1520 1521 1521 1521 1521 1521 1521 1521 1521 1522 1522 1521 1522 1522 1522 1521 1522 1522 1522 1522 1522 1522 1523 1523 1523
1496 1498 1500 1509 1516 1515 1512 1510 1509 1510 1511 1512 1513 1515 1517 1519 1519 1519 1520 1520 1521 1521 1521 1522 1522 1522 1522 1522 1522 1523 1523 1523 1523 1523 1523 1523 1523 1523 1523 1523 1523 1523 1523 1524 1524 1524 1524 1524 1524
1497 1498 1508 1517 1515 1512 1510 1509 1509 1510 1512 1513 1514 1516 1518 1519 1520 1520 1521 1522 1522 1522 1523 1523 1523 1523 1524 1524 1524 1524 1524 1524 1524 1524 1525 1525 1525 1525 1525 1525 1525 1525 1525 1525 1525 1525 1525 1525 1525
1498 1501 1518 1523 1517 1512 1510 1509 1510 1511 1512 1514 1514 1517 1519 1520 1521 1522 1522 1523 1523 1524 1524 1524 1525 1525 1525 1525 1525 1526 1526 1526 1526 1526 1526 1526 1526 1526 1526 1526 1526 1526 1526 1526 1526 1526 1526 1525 1525
1501 1508 1517 1518 1518 1514 1511 1510 1511 1511 1513 1514 1514 1517 1519 1521 1522 1523 1523 1524 1525 1525 1526 1526 1526 1526 1527 1527 1527 1527 1527 1528 1528 1528 1528 1528 1528 1528 1528 1528 1528 1528 1527 1527 1527 1527 1527 1526 1526
1500 1508 1516 1518 1517 1515 1511 1510 1511 1512 1513 1515 1515 1516 1518 1520 1522 1523 1524 1525 1526 1527 1527 1527 1528 1528 1528 1528 1529 1529 1529 1529 1529 1529 1529 1529 1529 1529 1529 1529 1529 1529 1529 1529 1528 1528 1528 1527 1527
1501 1512 1519 1516 1515 1513 1510 1511 1512 1513 1513 1515 1516 1517 1518 1520 1522 1524 1525 1526 1527 1528 1528 1529 1529 1529 1530 1530 1530 1530 1530 1530 1531 1531 1531 1530 1530 1530 1530 1530 1530 1530 1530 1530 1530 1529 1529 1529 1528
1502 1515 1513 1509 1509 1509 1510 1510 1512 1513 1514 1515 1516 1517 1519 1520 1522 1524 1525 1526 1527 1528 1529 1530 1530 1530 1531 1531 1531 1531 1532 1532 1532 1532 1532 1532 1532 1532 1532 1532 1532 1531 1531 1531 1530 1530 1530 1530 1529
1503 1509 1507 1507 1507 1508 1509 1511 1512 1513 1515 1515 1515 1516 1519 1521 1523 1524 1525 1527 1528 1529 1530 1530 1531 1532 1532 1532 1532 1533 1533 1533 1533 1533 1533 1533 1533 1533 1533 1532 1532 1532 1532 1532 1532 1531 1531 1531 1531
1504 1505 1506 1506 1507 1508 1509 1510 1512 1513 1514 1514 1514 1516 1518 1520 1522 1524 1525 1527 1528 1529 1530 1531 1532 1532 1533 1533 1533 1533 1534 1534 1534 1534 1534 1534 1533 1533 1533 1533 1533 1533 1533 1533 1532 1532 1532 1532 1532
1505 1506 1506 1507 1507 1508 1509 1511 1512 1513 1513 1514 1515 1517 1519 1520 1522 1524 1526 1527 1529 1530 1531 1531 1532 1533 1533 1534 1534 1534 1534 1535 1535 1535 1535 1534 1534 1534 1534 1534 1534 1533 1533 1533 1533 1533 1533 1532 1532
1505 1506 1506 1507 1507 1508 1510 1511 1513 1513 1513 1514 1515 1517 1519 1520 1522 1524 1525 1527 1528 1530 1531 1532 1532 1533 1534 1534 1535 1535 1535 1535 1535 1535 1535 1535 1535 1535 1534 1534 1534 1534 1534 1533 1533 1533 1533 1533 1533
1505 1507 1508 1508 1508 1509 1510 1514 1513 1512 1513 1514 1516 1517 1519 1520 1522 1523 1525 1526 1528 1529 1531 1532 1533 1533 1534 1534 1535 1535 1535 1535 1536 1536 1535 1535 1535 1535 1535 1535 1534 1534 1534 1534 1534 1533 1533 1533 1533
1507 1512 1516 1511 1509 1509 1514 1519 1512 1512 1513 1514 1515 1517 1518 1520 1521 1523 1525 1526 1528 1529 1530 1532 1532 1533 1534 1534 1535 1535 1536 1536 1536 1536 1536 1536 1536 1535 1535 1535 1535 1534 1534 1534 1534 1533 1533 1533 1533
1514 1520 1519 1514 1509 1510 1513 1517 1511 1511 1512 1513 1514 1515 1517 1519 1520 1522 1524 1525 1527 1528 1530 1531 1532 1533 1534 1534 1535 1535 1536 1536 1536 1536 1536 1536 1536 1536 1535 1535 1535 1534 1534 1534 1533 1533 1533 1533 1533
1520 1520 1519 1518 1511 1512 1514 1515 1510 1510 1511 1512 1513 1514 1515 1516 1518 1520 1522 1524 1526 1528 1529 1530 1531 1532 1533 1534 1534 1535 1535 1535 1536 1536 1536 1536 1536 1536 1535 1535 1534 1534 1534 1533 1533 1533 1533 1533 1533
1512 1516 1519 1515 1510 1513 1515 1514 1510 1509 1510 1510 1511 1512 1513 1514 1517 1519 1521 1523 1525 1526 1528 1529 1530 1531 1532 1533 1533 1534 1534 1535 1535 1535 1535 1535 1535 1535 1535 1535 1534 1534 1533 1533 1533 1533 1532 1532 1532
1512 1516 1518 1514 1510 1512 1515 1514 1509 1507 1508 1507 1508 1509 1511 1513 1515 1517 1519 1521 1522 1524 1526 1527 1528 1530 1531 1531 1532 1533 1534 1534 1535 1535 1535 1535 1535 1535 1534 1534 1534 1533 1533 1533 1532 1532 1532 1532 1532
1512 1515 1515 1515 1512 1512 1515 1516 1511 1507 1506 1506 1506 1507 1508 1510 1512 1514 1516 1518 1520 1522 1523 1525 1526 1528 1529 1530 1531 1532 1533 1533 1534 1534 1534 1534 1534 1534 1534 1533 1533 1533 1532 1532 1532 1532 1532 1531 1532
1514 1508 1509 1512 1518 1524 1520 1530 1516 1510 1507 1505 1505 1505 1506 1507 1509 1511 1513 1515 1517 1519 1521 1523 1525 1526 1527 1528 1529 1530 1530 1531 1532 1532 1533 1533 1533 1533 1533 1532 1532 1532 1532 1531 1531 1531 1531 1531 1531
1507 1505 1508 1512 1518 1525 1524 1529 1522 1512 1509 1506 1504 1503 1504 1505 1506 1508 1510 1512 1514 1517 1519 1521 1523 1524 1525 1527 1527 1528 1529 1530 1530 1531 1531 1532 1532 1532 1531 1531 1531 1531 1531 1530 1530 1530 1530 1530 1530
1505 1509 1514 1519 1524 1533 1528 1530 1527 1516 1510 1506 1503 1502 1502 1503 1504 1505 1508 1510 1512 1515 1517 1518 1520 1521 1523 1524 1525 1526 1527 1528 1529 1529 1529 1530 1530 1530 1530 1530 1530 1530 1529 1529 1529 1529 1529 1529 1529
1507 1519 1533 1534 1539 1537 1526 1528 1524 1509 1506 1505 1503 1501 1501 1501 1502 1503 1504 1507 1509 1511 1513 1515 1517 1518 1520 1522 1523 1524 1525 1526 1527 1527 1527 1528 1528 1528 1528 1528 1528 1528 1528 1528 1528 1528 1528 1528 1528
1510 1517 1534 1541 1542 1537 1528 1528 1516 1506 1504 1503 1502 1501 1500 1500 1501 1501 1503 1504 1506 1508 1510 1512 1514 1515 1517 1519 1520 1522 1523 1524 1524 1525 1525 1525 1525 1526 1526 1526 1526 1526 1526 1526 1526 1526 1526 1526 1526
1511 1517 1518 1531 1534 1538 1532 1524 1513 1504 1503 1502 1502 1501 1500 1499 1500 1500 1501 1502 1504 1506 1507 1509 1511 1512 1514 1516 1517 1518 1519 1520 1521 1522 1523 1523 1523 1523 1524 1524 1524 1524 1524 1524 1524 1524 1524 1524 1524
1507 1514 1523 1530 1538 1540 1533 1527 1522 1510 1507 1504 1502 1501 1499 1498 1498 1499 1500 1501 1502 1504 1505 1507 1509 1510 1511 1513 1514 1515 1516 1517 1518 1519 1520 1520 1520 1520 1521 1521 1521 1522 1522 1522 1522 1522 1522 1522 1522
1512 1516 1522 1530 1532 1539 1538 1530 1511 1510 1508 1506 1503 1501 1499 1498 1498 1498 1499 1500 1501 1502 1504 1505 1506 1508 1509 1510 1511 1512 1513 1514 1515 1516 1516 1517 1517 1517 1518 1518 1519 1519 1519 1519 1519 1519 1519 1519 1519
1507 1512 1520 1529 1532 1535 1536 1529 1507 1507 1506 1505 1503 1501 1499 1498 1498 1498 1498 1499 1500 1501 1502 1503 1504 1505 1506 1507 1508 1509 1510 1511 1512 1512 1513 1514 1514 1514 1514 1515 1515 1516 1516 1516 1516 1516 1516 1517 1516